Location: Fauquembergues
(50.6005°N, 2.0987°E)
Time: 04:15:44
(UTC+00:00)

Resurs 1-4 Rocket - Pass Details

Date: 14 July 2020
Orbit: 800 x 814 km, 98.6° (Epoch: 06 August)

Event Time Altitude Azimuth Distance (km) Brightness Sun altitude
Rises 03:01:06 0° 7° (N) 3,351 6.3 -7.2°
Reaches altitude 10° 03:03:49 10° 355° (N) 2,414 5.2 -6.9°
Maximum altitude 03:08:05 25° 302° (WNW) 1,586 3.5 -6.5°
Drops below altitude 10° 03:12:20 10° 248° (WSW) 2,396 4.0 -6.0°
Enters shadow 03:13:26 - 242° (WSW) 2,759 4.3 -5.9°
